El Paso, TX (88512)

12:48 AM MST on January 31, 2015 (GMT -0700)
APRSWXNET El Paso TX US | Change Station
CLOSE
Current Station
Personal Weather Station
Location: El Paso, TX
Elevation: 4700 ft
Nearby Weather Stations

Elev 4700 ft 31.82 °N, 106.50 °W | Updated 32 minutes ago

Light Rain
Light Rain Showers
43 °F
Feels Like 37 °F
N
11
Wind Variable Wind from NNW
Gusts 15.0 mph

Today
High -- | Low -- °F
--% Chance of Precip.
Yesterday
High -- | Low -- °F
Precip. -- in
6:59 AM 5:38 PM
Waxing Gibbous, 88% visible
Pressure 29.94 in
Visibility 10.0 miles
Clouds Few 700 ft
Mostly Cloudy 1300 ft
Overcast 6000 ft
Windchill 37 °F
Dew Point 41 °F
Humidity 92%
Rainfall -999.00 in
Snow Depth Not available.
UV 0 out of 12
Pollen .20 out of 12
Air Quality Not available.
Flu Activity Not available.
METAR KELP 310651Z 00000KT 10SM -RASN FEW007 BKN013 OVC060 07/04 A3000 RMK AO2 SNB40 SLP137 MTNS PTLY OBSCD SW-NW P0002 T00670044 400890050

More Conditions Fewer Conditions

Pressure 29.94 in
Visibility 10.0 miles
Clouds Few 700 ft
Mostly Cloudy 1300 ft
Overcast 6000 ft
Windchill 37 °F
Dew Point 41 °F
Humidity 92%
Rainfall -999.00 in
Snow Depth Not available.
UV 0 out of 12
Pollen .20 out of 12
Air Quality Not available.
Flu Activity Not available.
METAR KELP 310651Z 00000KT 10SM -RASN FEW007 BKN013 OVC060 07/04 A3000 RMK AO2 SNB40 SLP137 MTNS PTLY OBSCD SW-NW P0002 T00670044 400890050

More Conditions Fewer Conditions

Nowcast | as of 10:07 PM MST on January 30, 2015

Widespread light to moderate rain showers will continue to move across southern New Mexico and far West Texas from the south- southwest during the overnight hours. Rainfall rates will generally be a tenth of an inch per hour with a few locations experiencing a quarter of an inch per hour. Overnight totals will range from a quarter of an inch to more than a half inch. There will also be fog at times in a few spots with visibilities briefly dropping to 1/4 mile.

×

10-Day Weather Forecast

Almanac

Astronomy

Jan. 31, 2015 Rise Set
Actual Time
Civil Twilight
Nautical Twilight
Astronomical Twilight
Moon
Length of Visible Light
Length of Day
Tomorrow will be .
, % of the Moon is Illuminated

Today's Extremes

State Highs State Lows

Community

WunderPhotos

Upload Photos

1,792,014 photos uploaded!

WunderBlogs® & News

Nearby

Air Quality

  Air Quality AQ Index Pollutant
Not available.

Snow Depth

Station Depth Elevation

Earthquake Activity

City Distance Mag. Time & Date
Minimum magnitude displayed is 2.5.

Coastal Water Temperatures

Place Temperature

Nearby Weather Stations